Flag for U.S.A. Weather past 2 weeks in Shreveport, Louisiana, U.S.A.

Now
83 °F

Passing clouds.


Feels Like: 84 °F
Forecast: 72 / 97 °F
Wind: No wind

Location: Shreveport Regional Airport

Current Time: Aug 2, 2015 at 10:41:30 PM

Latest Report: Aug 2, 2015 at 9:56 PM


Visibility: 10 mi

Pressure: 29.86 "Hg

Humidity: 50%

Dew point: 62 °F

Location of ShreveportLocation

Historic Weather in Shreveport — Graph

°F

Shreveport temperature yesterday

Maximum temperature yesterday: 97 °F (at 3:56 PM)
Minimum temperature yesterday: 74 °F (at 4:56 AM)
Average temperature yesterday: 85 °F

Past Weeks' High & Low Weather Summary

 TemperatureHumidityPressure
High103 °F (Jul 30, 2:56 PM)94% (Jul 27, 5:56 AM)30.07 "Hg (Jul 27, 5:56 AM)
Low68 °F (Aug 2, 5:56 AM)25% (Aug 1, 5:56 PM)29.82 "Hg (Jul 21, 6:56 PM)
Average88 °F58%29.94 "Hg
* Reported Jul 18 8:56 PM — Aug 2 8:56 PM, Shreveport, Weather by CustomWeather, © 2015

Note: Actual official high and low records may vary slightly from our data, if they occured in-between our weather recording intervals... More about our weather records

Advertising

Shreveport weather history for previous 24 hours

 ConditionsComfort  
Time TempWeatherWind HumidityBarometerVisibility
8:56 PM
Sun, Aug 2
86 °FScattered clouds.No wind43%29.85 "Hg10 mi
7:56 PM90 °FPartly sunny.7 mph34%29.84 "Hg10 mi
6:56 PM96 °FPassing clouds.6 mph28%29.84 "Hg10 mi
5:56 PM97 °FPassing clouds.9 mph27%29.85 "Hg10 mi
4:56 PM97 °FPassing clouds.10 mph26%29.87 "Hg10 mi
3:56 PM97 °FPassing clouds.3 mph27%29.88 "Hg10 mi
2:56 PM98 °FPassing clouds.10 mph26%29.90 "Hg10 mi
1:56 PM96 °FPassing clouds.7 mph26%29.91 "Hg10 mi
12:56 PM94 °FPassing clouds.5 mph30%29.93 "Hg10 mi
11:56 AM94 °FPassing clouds.9 mph28%29.95 "Hg10 mi
10:56 AM93 °FPassing clouds.7 mph36%29.96 "Hg10 mi
9:56 AM89 °FPassing clouds.6 mph42%29.96 "Hg10 mi
8:56 AM84 °FPassing clouds.6 mph51%29.96 "Hg10 mi
7:56 AM78 °FPassing clouds.No wind71%29.95 "Hg10 mi
6:56 AM69 °FPassing clouds.No wind87%29.94 "Hg10 mi
5:56 AM68 °FPassing clouds.No wind84%29.93 "Hg10 mi
4:56 AM70 °FClear.No wind79%29.92 "Hg10 mi
3:56 AM70 °FPassing clouds.No wind79%29.92 "Hg10 mi
2:56 AM72 °FPassing clouds.No wind73%29.92 "Hg10 mi
1:56 AM72 °FPassing clouds.3 mph73%29.93 "Hg10 mi
12:56 AM75 °FPassing clouds.No wind66%29.93 "Hg10 mi
11:56 PM
Sat, Aug 1
75 °FPassing clouds.No wind69%29.93 "Hg10 mi
10:56 PM78 °FPassing clouds.No wind60%29.93 "Hg10 mi
Weather by CustomWeather, © 2015

See weather overviewHow to use our weather pages